Powrót do katalogu

OPS 8737

AktywnyNawigacjaLEO
NORAD 14690·PAYLOAD·🇺🇸 United States

Wystrzelony Feb 5, 1984 z Vandenberg Space Force Base

Loading…

Następne Przeloty (najbliższe 24 godziny)

TLE

ŚwieżeSource: Space-Track

Epoka: Sep 14, 2026, 09:27 UTC

1 14690U 84012A   26257.39400308  .00003307  00000-0  25797-3 0  9990
2 14690  63.3051 242.0652 0608560 126.8009 239.0501 14.16525723120595

Śledź OPS 8737 w czasie rzeczywistym z AllMySat

Download on the App Store